Regional Weather Roundup
Issued by NWS Nashville, TN

Home | Current Version | Previous Version | Text Only | Print | Product List | Glossary On
Versions: 1 2 3 4 5 6 7 8 9 10 11 12 13 14 15 16 17 18 19 20 21 22 23 24 25 26 27 28 29 30 31 32 33 34 35 36 37 38 39 40 41 42 43 44 45 46 47 48 49 50
000
ASUS44 KOHX 011515
RWROHX
MIDDLE TENNESSEE HOURLY WEATHER ROUNDUP
NATIONAL WEATHER SERVICE NASHVILLE TN
900 AM CST SUN FEB 01 2015

NOTE: "FAIR" INDICATES FEW OR NO CLOUDS BELOW 12,000 FEET WITH
NO SIGNIFICANT WEATHER AND/OR OBSTRUCTIONS TO VISIBILITY.

* THESE REPORTS ARE NOT UNDER NWS QUALITY CONTROL AND MAY NOT
  REPORT WEATHER SUCH AS PRECIPITATION AND FOG.


TNZ005>011-023>034-057-059-062>066-078-080-011600
...NORTHERN MIDDLE TENNESSEE...

CITY           SKY/WX    TMP DP  RH WIND       PRES   REMARKS
CLARKSVILLE    LGT RAIN  43  38  82 S10       29.90F
CROSSVILLE     CLOUDY    45  23  42 S13G22    30.07F
GALLATIN       CLOUDY    46  34  63 S12       30.00F
DICKSON        CLOUDY    43  36  75 S14       29.91F
LEBANON        CLOUDY    48  28  46 S9        29.99F
LIVINGSTON     CLOUDY    49  26  41 S13       30.02F
NASHVILLE      CLOUDY    47  34  60 S16       29.99F
PORTLAND       CLOUDY    43  32  65 S13       29.95F
SMYRNA         CLOUDY    49  31  50 S16       30.01F
SPARTA         SUNNY     46  27  46 S9        30.04F
$$
TNZ056-058-060-061-075>077-079-093>097-011600
...SOUTHERN MIDDLE TENNESSEE...

CITY           SKY/WX    TMP DP  RH WIND       PRES   REMARKS
COLUMBIA       PTSUNNY   45  45 100 S13       29.95F
LEWISBURG      CLOUDY    46  34  63 S15       30.01F
MCMINNVILLE      N/A     50  30  46 S9        30.05R
MURFREESBORO   CLOUDY    50  33  51 S13       30.02F
SHELBYVILLE    CLOUDY    46  36  66 S15       30.04F
TULLAHOMA      PTSUNNY   45  30  57 S14       30.05F
WINCHESTER     PTSUNNY   48  28  46 S12       30.07F
$$


...KEY TO REMARKS...
VSB - VISIBILITY IN MILES
WCI - WIND CHILL INDEX
HX  - HEAT INDEX




USA.gov is the U.S. government's official web portal to all federal, state and local government web resources and services.